Location: Las Navas
(40.6024°N, 4.3345°W)
Time: 08:28:25
(UTC+00:00)

SL-4 R/B - Pass Details

Date: 03 April 2020
Orbit: 428 x 666 km, 51.6° (Epoch: 29 May)

Event Time Altitude Azimuth Distance (km) Brightness Sun altitude
Rises 19:37:35 0° 208° (SSW) 2,393 5.4 -10.6°
Reaches altitude 10° 19:39:51 10° 197° (SSW) 1,518 4.3 -11.1°
Maximum altitude 19:42:50 29° 135° (SE) 807 2.4 -11.6°
Enters shadow 19:44:39 18° 86° (E) 1,127 3.1 -11.9°
